sat.trackr.live / text

‹ back to catalog

STARLINK-5857

NORAD 55946 · 2023-037AJ

PAYLOAD ACTIVE UNKNOWN

§ Identity

Operator
Country
US
Launch date
2023-03-17
Launch site
AFWTR
Launch vehicle
Mass (kg)
RCS (m²)

Purposes: comms

External: N2YO · Heavens-Above · Gunter

§ Orbital elements

Epoch: 2026-05-25T03:20:44.750976Z

Period
96.11 min
Inclination
69.9998°
Eccentricity
0.0003025
Mean motion
14.98338978 rev/d
Perigee alt
569.9 km
Apogee alt
574.1 km
Semi-major
6,950.2 km
B*
7.0433e-5
RAAN
91.6205°
Arg perigee
273.2045°
Mean anomaly
86.8768°
Rev number
17,542

§ Raw data

STARLINK-58571 55946U 23037AJ  26145.13940684  .00000748  00000+0  70433-4 0  99962 55946  69.9998  91.6205 0003025 273.2045  86.8768 14.98338978175429

JSON: /api/v1/satellites/55946 · /tle

For live sub-satellite position, see the globe view (requires WebGL).

§ Visibility from observer

Set your observer location to see the next 7 days of passes ≥ 10°. The values pass through the URL so the page stays shareable.

No JS? Fill the form by hand. The geolocation button needs JavaScript.